Wetterdaten: Freitag, 20.02.2015
Datum Zeit Auen-Temp. Temp. -10 cm Luftfeuchte Luftfeuchte Luftdruck Regen Wind Richtung Richtung Taupunkt Windchill Windben
20.02.2015 00:00 -4,2 C 0,9 C 74 % 74 % 1027,1 hPa 0,0 l/m 0,0 km/h (0 Bft) N-NO 22 -8,1 C -5,7 C 0,0 km/h (0 Bft)
20.02.2015 00:05 -4,4 C 0,9 C 74 % 74 % 1027,1 hPa 0,0 l/m 0,0 km/h (0 Bft) NO 45 -8,3 C -5,7 C 0,0 km/h (0 Bft)
20.02.2015 00:10 -4,8 C 0,9 C 74 % 74 % 1027,1 hPa 0,0 l/m 0,0 km/h (0 Bft) NO 45 -8,7 C -5,8 C 0,0 km/h (0 Bft)
20.02.2015 00:15 -5,0 C 0,9 C 74 % 74 % 1026,9 hPa 0,0 l/m 0,0 km/h (0 Bft) NO 45 -8,9 C -5,9 C 0,0 km/h (0 Bft)
20.02.2015 00:20 -5,2 C 0,9 C 74 % 74 % 1026,9 hPa 0,0 l/m 0,0 km/h (0 Bft) NO 45 -9,1 C -6,1 C 0,0 km/h (0 Bft)
20.02.2015 00:25 -5,2 C 0,9 C 74 % 74 % 1026,9 hPa 0,0 l/m 0,0 km/h (0 Bft) N-NO 22 -9,1 C -6,1 C 0,0 km/h (0 Bft)
20.02.2015 00:30 -5,1 C 0,9 C 74 % 74 % 1026,9 hPa 0,0 l/m 0,0 km/h (0 Bft) N-NO 22 -9,0 C -6,3 C 0,0 km/h (0 Bft)
20.02.2015 00:35 -5,1 C 0,9 C 74 % 74 % 1026,9 hPa 0,0 l/m 0,0 km/h (0 Bft) N-NO 22 -9,0 C -6,3 C 0,0 km/h (0 Bft)
20.02.2015 00:40 -5,0 C 0,9 C 74 % 74 % 1026,9 hPa 0,0 l/m 0,0 km/h (0 Bft) W 270 -8,9 C -6,4 C 1,6 km/h (1 Bft)
20.02.2015 00:45 -5,2 C 0,9 C 75 % 75 % 1026,9 hPa 0,0 l/m 0,0 km/h (0 Bft) N-NW 337 -8,9 C -6,4 C 0,0 km/h (0 Bft)
20.02.2015 00:50 -5,0 C 0,9 C 75 % 75 % 1026,9 hPa 0,0 l/m 0,0 km/h (0 Bft) N-NW 337 -8,7 C -6,4 C 0,0 km/h (0 Bft)
20.02.2015 00:55 -5,3 C 0,9 C 75 % 75 % 1026,8 hPa 0,0 l/m 0,0 km/h (0 Bft) W-NW 292 -9,0 C -6,5 C 0,0 km/h (0 Bft)
20.02.2015 01:00 -5,4 C 0,9 C 75 % 75 % 1026,8 hPa 0,0 l/m 0,0 km/h (0 Bft) W 270 -9,1 C -6,7 C 0,0 km/h (0 Bft)
20.02.2015 01:05 -5,6 C 0,9 C 75 % 75 % 1026,8 hPa 0,0 l/m 0,0 km/h (0 Bft) W 270 -9,3 C -6,8 C 0,0 km/h (0 Bft)
20.02.2015 01:10 -5,6 C 1,0 C 75 % 75 % 1026,8 hPa 0,0 l/m 0,0 km/h (0 Bft) N-NO 22 -9,3 C -6,9 C 0,0 km/h (0 Bft)
20.02.2015 01:15 -5,5 C 1,0 C 75 % 75 % 1026,5 hPa 0,0 l/m 0,0 km/h (0 Bft) N-NW 337 -9,2 C -6,8 C 0,0 km/h (0 Bft)
20.02.2015 01:20 -5,8 C 1,0 C 75 % 75 % 1026,5 hPa 0,0 l/m 0,0 km/h (0 Bft) W-NW 292 -9,5 C -6,8 C 0,0 km/h (0 Bft)
20.02.2015 01:25 -5,4 C 1,0 C 75 % 75 % 1026,5 hPa 0,0 l/m 0,0 km/h (0 Bft) N-NO 22 -9,1 C -6,8 C 0,0 km/h (0 Bft)
20.02.2015 01:30 -5,4 C 1,0 C 75 % 75 % 1026,5 hPa 0,0 l/m 0,0 km/h (0 Bft) W-NW 292 -9,1 C -6,7 C 0,0 km/h (0 Bft)
20.02.2015 01:35 -5,6 C 1,0 C 75 % 75 % 1026,2 hPa 0,0 l/m 0,0 km/h (0 Bft) N-NW 337 -9,3 C -6,8 C 0,0 km/h (0 Bft)
20.02.2015 01:40 -5,1 C 0,9 C 75 % 75 % 1026,2 hPa 0,0 l/m 0,0 km/h (0 Bft) NO 45 -8,8 C -6,4 C 0,0 km/h (0 Bft)
20.02.2015 01:45 -4,9 C 0,9 C 75 % 75 % 1026,2 hPa 0,0 l/m 0,0 km/h (0 Bft) O-NO 67 -8,6 C -6,3 C 0,0 km/h (0 Bft)
20.02.2015 01:50 -3,9 C 0,9 C 76 % 76 % 1026,2 hPa 0,0 l/m 0,0 km/h (0 Bft) O-NO 67 -7,5 C -5,5 C 0,0 km/h (0 Bft)
20.02.2015 01:55 -3,6 C 0,9 C 76 % 76 % 1026,1 hPa 0,0 l/m 0,0 km/h (0 Bft) O-NO 67 -7,2 C -5,1 C 0,0 km/h (0 Bft)
20.02.2015 02:00 -3,2 C 0,9 C 76 % 76 % 1026,1 hPa 0,0 l/m 0,0 km/h (0 Bft) NW 315 -6,8 C -4,6 C 1,6 km/h (1 Bft)
20.02.2015 02:05 -3,3 C 0,9 C 75 % 75 % 1026,1 hPa 0,0 l/m 0,0 km/h (0 Bft) N-NO 22 -7,1 C -4,4 C 0,0 km/h (0 Bft)
20.02.2015 02:10 -4,0 C 0,9 C 75 % 75 % 1026,1 hPa 0,0 l/m 0,0 km/h (0 Bft) N 360 -7,8 C -4,6 C 0,0 km/h (0 Bft)
20.02.2015 02:15 -3,4 C 0,9 C 75 % 75 % 1025,9 hPa 0,0 l/m 0,2 km/h (0 Bft) O 90 -7,2 C -4,6 C 0,0 km/h (0 Bft)
20.02.2015 02:20 -3,1 C 1,0 C 74 % 74 % 1025,9 hPa 0,0 l/m 0,5 km/h (0 Bft) O-SO 112 -7,1 C -4,3 C 6,6 km/h (2 Bft)
20.02.2015 02:25 -3,0 C 1,0 C 74 % 74 % 1025,9 hPa 0,0 l/m 0,8 km/h (0 Bft) N-NO 22 -7,0 C -4,2 C 0,0 km/h (0 Bft)
20.02.2015 02:30 -3,8 C 1,0 C 73 % 73 % 1025,9 hPa 0,0 l/m 0,6 km/h (0 Bft) O-NO 67 -7,9 C -4,4 C 1,8 km/h (1 Bft)
20.02.2015 02:35 -3,9 C 0,9 C 73 % 73 % 1025,9 hPa 0,0 l/m 0,3 km/h (0 Bft) N-NW 337 -8,0 C -4,6 C 0,0 km/h (0 Bft)
20.02.2015 02:40 -4,1 C 0,9 C 72 % 72 % 1025,9 hPa 0,0 l/m 0,0 km/h (0 Bft) N-NW 337 -8,4 C -5,0 C 0,0 km/h (0 Bft)
20.02.2015 02:45 -4,6 C 0,9 C 72 % 72 % 1025,9 hPa 0,0 l/m 0,0 km/h (0 Bft) NW 315 -8,9 C -5,3 C 0,0 km/h (0 Bft)
20.02.2015 02:50 -4,7 C 0,9 C 72 % 72 % 1025,9 hPa 0,0 l/m 0,0 km/h (0 Bft) N-NW 337 -9,0 C -5,6 C 0,0 km/h (0 Bft)
20.02.2015 02:55 -4,6 C 0,9 C 72 % 72 % 1025,7 hPa 0,0 l/m 0,0 km/h (0 Bft) N-NW 337 -8,9 C -5,6 C 0,0 km/h (0 Bft)
20.02.2015 03:00 -4,8 C 0,9 C 72 % 72 % 1025,7 hPa 0,0 l/m 0,0 km/h (0 Bft) NW 315 -9,1 C -5,7 C 0,0 km/h (0 Bft)
20.02.2015 03:05 -4,7 C 0,9 C 72 % 72 % 1025,7 hPa 0,0 l/m 0,0 km/h (0 Bft) N-NW 337 -9,0 C -5,8 C 0,0 km/h (0 Bft)
20.02.2015 03:10 -5,1 C 0,9 C 72 % 72 % 1025,7 hPa 0,0 l/m 0,0 km/h (0 Bft) N-NO 22 -9,3 C -6,0 C 0,0 km/h (0 Bft)
20.02.2015 03:15 -4,9 C 0,9 C 72 % 72 % 1025,6 hPa 0,0 l/m 0,0 km/h (0 Bft) N-NO 22 -9,1 C -6,0 C 0,0 km/h (0 Bft)
20.02.2015 03:20 -4,2 C 0,9 C 73 % 73 % 1025,6 hPa 0,0 l/m 0,0 km/h (0 Bft) N-NO 22 -8,3 C -5,7 C 0,0 km/h (0 Bft)
20.02.2015 03:25 -3,4 C 0,9 C 73 % 73 % 1025,6 hPa 0,0 l/m 0,3 km/h (0 Bft) O-NO 67 -7,5 C -5,2 C 0,0 km/h (0 Bft)
20.02.2015 03:30 -3,2 C 0,9 C 73 % 73 % 1025,6 hPa 0,0 l/m 0,5 km/h (0 Bft) NW 315 -7,3 C -4,6 C 2,4 km/h (1 Bft)
20.02.2015 03:35 -3,0 C 0,9 C 73 % 73 % 1025,2 hPa 0,0 l/m 0,5 km/h (0 Bft) NO 45 -7,1 C -4,4 C 0,0 km/h (0 Bft)
20.02.2015 03:40 -3,5 C 0,9 C 72 % 72 % 1025,2 hPa 0,0 l/m 0,5 km/h (0 Bft) NW 315 -7,8 C -4,3 C 0,0 km/h (0 Bft)
20.02.2015 03:45 -3,5 C 0,9 C 72 % 72 % 1025,2 hPa 0,0 l/m 0,2 km/h (0 Bft) NO 45 -7,8 C -4,5 C 0,0 km/h (0 Bft)
20.02.2015 03:50 -2,8 C 1,0 C 71 % 71 % 1025,2 hPa 0,0 l/m 0,2 km/h (0 Bft) NO 45 -7,3 C -4,3 C 0,0 km/h (0 Bft)
20.02.2015 03:55 -2,6 C 1,0 C 71 % 71 % 1024,9 hPa 0,0 l/m 0,3 km/h (0 Bft) NO 45 -7,1 C -4,1 C 0,0 km/h (0 Bft)
20.02.2015 04:00 -2,8 C 1,0 C 71 % 71 % 1024,9 hPa 0,0 l/m 0,3 km/h (0 Bft) N-NO 22 -7,3 C -4,0 C 0,0 km/h (0 Bft)
20.02.2015 04:05 -2,8 C 1,0 C 70 % 70 % 1024,9 hPa 0,0 l/m 0,0 km/h (0 Bft) NO 45 -7,5 C -4,0 C 0,0 km/h (0 Bft)
20.02.2015 04:10 -2,5 C 1,0 C 70 % 70 % 1024,9 hPa 0,0 l/m 0,5 km/h (0 Bft) O-NO 67 -7,2 C -3,7 C 0,0 km/h (0 Bft)
20.02.2015 04:15 -2,6 C 1,0 C 69 % 69 % 1024,9 hPa 0,0 l/m 0,5 km/h (0 Bft) NO 45 -7,5 C -3,7 C 0,0 km/h (0 Bft)
20.02.2015 04:20 -2,9 C 1,0 C 69 % 69 % 1024,9 hPa 0,0 l/m 0,0 km/h (0 Bft) N-NW 337 -7,8 C -3,8 C 0,0 km/h (0 Bft)
20.02.2015 04:25 -3,1 C 0,9 C 69 % 69 % 1024,9 hPa 0,0 l/m 0,2 km/h (0 Bft) N-NW 337 -8,0 C -3,9 C 0,0 km/h (0 Bft)
20.02.2015 04:30 -4,0 C 0,9 C 69 % 69 % 1024,9 hPa 0,0 l/m 0,3 km/h (0 Bft) NW 315 -8,8 C -4,6 C 0,0 km/h (0 Bft)
20.02.2015 04:35 -3,8 C 0,9 C 69 % 69 % 1024,6 hPa 0,0 l/m 0,3 km/h (0 Bft) N-NW 337 -8,6 C -4,8 C 0,0 km/h (0 Bft)
20.02.2015 04:40 -3,3 C 0,9 C 69 % 69 % 1024,6 hPa 0,0 l/m 0,0 km/h (0 Bft) N-NO 22 -8,2 C -4,6 C 0,0 km/h (0 Bft)
20.02.2015 04:45 -3,5 C 0,9 C 68 % 68 % 1024,6 hPa 0,0 l/m 0,3 km/h (0 Bft) N-NO 22 -8,5 C -4,6 C 1,8 km/h (1 Bft)
20.02.2015 04:50 -4,4 C 0,9 C 68 % 68 % 1024,6 hPa 0,0 l/m 0,3 km/h (0 Bft) N 360 -9,4 C -5,0 C 0,0 km/h (0 Bft)
20.02.2015 04:55 -4,7 C 0,9 C 68 % 68 % 1024,6 hPa 0,0 l/m 0,2 km/h (0 Bft) N-NO 22 -9,7 C -5,4 C 0,0 km/h (0 Bft)
20.02.2015 05:00 -4,4 C 0,9 C 69 % 69 % 1024,6 hPa 0,0 l/m 0,2 km/h (0 Bft) N-NO 22 -9,2 C -5,5 C 0,0 km/h (0 Bft)
20.02.2015 05:05 -4,0 C 0,9 C 69 % 69 % 1024,6 hPa 0,0 l/m 0,2 km/h (0 Bft) N-NW 337 -8,8 C -5,4 C 0,0 km/h (0 Bft)
20.02.2015 05:10 -4,4 C 0,9 C 69 % 69 % 1024,6 hPa 0,0 l/m 0,2 km/h (0 Bft) NW 315 -9,2 C -5,4 C 1,8 km/h (1 Bft)
20.02.2015 05:15 -4,9 C 0,9 C 69 % 69 % 1024,4 hPa 0,0 l/m 0,2 km/h (0 Bft) NW 315 -9,7 C -5,6 C 0,0 km/h (0 Bft)
20.02.2015 05:20 -5,4 C 0,9 C 69 % 69 % 1024,4 hPa 0,0 l/m 0,2 km/h (0 Bft) NW 315 -10,2 C -6,1 C 0,0 km/h (0 Bft)
20.02.2015 05:25 -5,7 C 0,9 C 69 % 69 % 1024,4 hPa 0,0 l/m 0,0 km/h (0 Bft) NW 315 -10,5 C -6,3 C 0,0 km/h (0 Bft)
20.02.2015 05:30 -5,6 C 0,9 C 69 % 69 % 1024,4 hPa 0,0 l/m 0,0 km/h (0 Bft) NW 315 -10,4 C -6,7 C 0,0 km/h (0 Bft)
20.02.2015 05:35 -5,6 C 1,0 C 69 % 69 % 1024,4 hPa 0,0 l/m 0,0 km/h (0 Bft) NW 315 -10,4 C -6,8 C 0,0 km/h (0 Bft)
20.02.2015 05:40 -6,1 C 1,0 C 69 % 69 % 1024,4 hPa 0,0 l/m 0,0 km/h (0 Bft) NW 315 -10,8 C -7,1 C 0,0 km/h (0 Bft)
20.02.2015 05:45 -6,1 C 1,0 C 69 % 69 % 1024,4 hPa 0,0 l/m 0,0 km/h (0 Bft) NW 315 -10,8 C -7,2 C 0,0 km/h (0 Bft)
20.02.2015 05:50 -6,2 C 1,0 C 69 % 69 % 1024,4 hPa 0,0 l/m 0,0 km/h (0 Bft) NW 315 -10,9 C -7,3 C 0,0 km/h (0 Bft)
20.02.2015 05:55 -6,4 C 1,0 C 69 % 69 % 1023,9 hPa 0,0 l/m 0,0 km/h (0 Bft) NW 315 -11,1 C -7,4 C 0,0 km/h (0 Bft)
20.02.2015 06:00 -6,3 C 1,0 C 70 % 70 % 1023,9 hPa 0,0 l/m 0,0 km/h (0 Bft) N-NW 337 -10,9 C -7,4 C 0,0 km/h (0 Bft)
20.02.2015 06:05 -6,5 C 1,0 C 70 % 70 % 1023,9 hPa 0,0 l/m 0,0 km/h (0 Bft) N-NW 337 -11,0 C -7,4 C 0,0 km/h (0 Bft)
20.02.2015 06:10 -6,5 C 1,0 C 71 % 71 % 1023,9 hPa 0,0 l/m 0,0 km/h (0 Bft) N-NO 22 -10,9 C -7,5 C 0,0 km/h (0 Bft)
20.02.2015 06:15 -6,5 C 1,0 C 71 % 71 % 1024,0 hPa 0,0 l/m 0,0 km/h (0 Bft) N-NO 22 -10,9 C -7,5 C 0,0 km/h (0 Bft)
20.02.2015 06:20 -6,6 C 1,0 C 71 % 71 % 1024,0 hPa 0,0 l/m 0,0 km/h (0 Bft) N-NO 22 -11,0 C -7,5 C 0,0 km/h (0 Bft)
20.02.2015 06:25 -6,0 C 1,0 C 72 % 72 % 1024,0 hPa 0,0 l/m 0,0 km/h (0 Bft) N-NO 22 -10,2 C -7,4 C 0,0 km/h (0 Bft)
20.02.2015 06:30 -4,4 C 1,0 C 73 % 73 % 1024,0 hPa 0,0 l/m 0,2 km/h (0 Bft) NW 315 -8,5 C -6,3 C 0,0 km/h (0 Bft)
20.02.2015 06:35 -4,6 C 1,0 C 72 % 72 % 1023,9 hPa 0,0 l/m 0,2 km/h (0 Bft) NW 315 -8,9 C -5,9 C 0,0 km/h (0 Bft)
20.02.2015 06:40 -5,4 C 1,0 C 72 % 72 % 1023,9 hPa 0,0 l/m 0,2 km/h (0 Bft) NW 315 -9,6 C -6,1 C 0,0 km/h (0 Bft)
20.02.2015 06:45 -5,7 C 1,0 C 72 % 72 % 1023,9 hPa 0,0 l/m 0,0 km/h (0 Bft) NW 315 -9,9 C -6,4 C 0,0 km/h (0 Bft)
20.02.2015 06:50 -6,1 C 1,0 C 71 % 71 % 1023,9 hPa 0,0 l/m 0,0 km/h (0 Bft) NW 315 -10,5 C -6,9 C 0,0 km/h (0 Bft)
20.02.2015 06:55 -5,6 C 1,0 C 72 % 72 % 1023,9 hPa 0,0 l/m 0,0 km/h (0 Bft) NW 315 -9,8 C -6,8 C 0,0 km/h (0 Bft)
20.02.2015 07:00 -6,0 C 1,0 C 72 % 72 % 1023,9 hPa 0,0 l/m 0,0 km/h (0 Bft) NW 315 -10,2 C -7,0 C 0,0 km/h (0 Bft)
20.02.2015 07:05 -5,4 C 1,0 C 72 % 72 % 1023,9 hPa 0,0 l/m 0,2 km/h (0 Bft) NW 315 -9,6 C -6,9 C 1,8 km/h (1 Bft)
20.02.2015 07:10 -3,9 C 1,0 C 73 % 73 % 1023,9 hPa 0,0 l/m 0,2 km/h (0 Bft) O-NO 67 -8,0 C -6,0 C 0,0 km/h (0 Bft)
20.02.2015 07:15 -3,3 C 0,9 C 73 % 73 % 1023,9 hPa 0,0 l/m 0,5 km/h (0 Bft) SO 135 -7,4 C -5,3 C 3,4 km/h (1 Bft)
20.02.2015 07:20 -3,1 C 0,9 C 71 % 71 % 1023,9 hPa 0,0 l/m 0,3 km/h (0 Bft) SO 135 -7,6 C -4,6 C 0,0 km/h (0 Bft)
20.02.2015 07:25 -3,3 C 0,9 C 70 % 70 % 1023,9 hPa 0,0 l/m 0,2 km/h (0 Bft) S 180 -8,0 C -4,4 C 0,0 km/h (0 Bft)
20.02.2015 07:30 -4,4 C 0,9 C 69 % 69 % 1023,9 hPa 0,0 l/m 0,2 km/h (0 Bft) S-SO 157 -9,2 C -4,6 C 0,0 km/h (0 Bft)
20.02.2015 07:35 -4,0 C 0,9 C 69 % 69 % 1023,8 hPa 0,0 l/m 0,0 km/h (0 Bft) S-SO 157 -8,8 C -4,7 C 0,0 km/h (0 Bft)
20.02.2015 07:40 -4,6 C 0,9 C 69 % 69 % 1023,8 hPa 0,0 l/m 0,0 km/h (0 Bft) S-SO 157 -9,4 C -4,9 C 0,0 km/h (0 Bft)
20.02.2015 07:45 -4,7 C 0,9 C 69 % 69 % 1023,8 hPa 0,0 l/m 0,0 km/h (0 Bft) S-SO 157 -9,5 C -5,1 C 0,0 km/h (0 Bft)
20.02.2015 07:50 -4,6 C 0,9 C 69 % 69 % 1023,8 hPa 0,0 l/m 0,0 km/h (0 Bft) S-SO 157 -9,4 C -5,2 C 0,0 km/h (0 Bft)
20.02.2015 07:55 -4,2 C 0,9 C 69 % 69 % 1023,7 hPa 0,0 l/m 0,0 km/h (0 Bft) O-SO 112 -9,0 C -5,1 C 1,9 km/h (1 Bft)
20.02.2015 08:00 -3,3 C 0,9 C 70 % 70 % 1023,7 hPa 0,0 l/m 0,0 km/h (0 Bft) N-NO 22 -8,0 C -4,6 C 0,0 km/h (0 Bft)
20.02.2015 08:05 -2,9 C 0,9 C 70 % 70 % 1023,7 hPa 0,0 l/m 0,2 km/h (0 Bft) N-NO 22 -7,6 C -4,3 C 0,0 km/h (0 Bft)
20.02.2015 08:10 -3,0 C 0,9 C 69 % 69 % 1023,7 hPa 0,0 l/m 0,0 km/h (0 Bft) N-NO 22 -7,9 C -3,8 C 0,0 km/h (0 Bft)
20.02.2015 08:15 -2,7 C 0,9 C 69 % 69 % 1023,5 hPa 0,0 l/m 0,0 km/h (0 Bft) N-NO 22 -7,6 C -3,7 C 0,0 km/h (0 Bft)
20.02.2015 08:20 -2,4 C 0,9 C 69 % 69 % 1023,5 hPa 0,0 l/m 0,0 km/h (0 Bft) N-NO 22 -7,3 C -3,3 C 0,0 km/h (0 Bft)
20.02.2015 08:25 -2,4 C 0,9 C 69 % 69 % 1023,5 hPa 0,0 l/m 0,0 km/h (0 Bft) NO 45 -7,3 C -3,2 C 0,0 km/h (0 Bft)
20.02.2015 08:30 -2,3 C 0,9 C 68 % 68 % 1023,5 hPa 0,0 l/m 0,2 km/h (0 Bft) NO 45 -7,4 C -3,0 C 2,3 km/h (1 Bft)
20.02.2015 08:35 -2,2 C 0,9 C 68 % 68 % 1023,4 hPa 0,0 l/m 0,2 km/h (0 Bft) NO 45 -7,3 C -2,8 C 0,0 km/h (0 Bft)
20.02.2015 08:40 -1,9 C 1,0 C 67 % 67 % 1023,4 hPa 0,0 l/m 0,2 km/h (0 Bft) O-NO 67 -7,2 C -2,6 C 0,0 km/h (0 Bft)
20.02.2015 08:45 -1,8 C 1,0 C 67 % 67 % 1023,4 hPa 0,0 l/m 0,0 km/h (0 Bft) O-NO 67 -7,1 C -2,4 C 0,0 km/h (0 Bft)
20.02.2015 08:50 -2,0 C 1,0 C 67 % 67 % 1023,4 hPa 0,0 l/m 0,0 km/h (0 Bft) NO 45 -7,3 C -2,4 C 0,0 km/h (0 Bft)
20.02.2015 08:55 -2,1 C 1,0 C 66 % 66 % 1023,4 hPa 0,0 l/m 0,0 km/h (0 Bft) O-NO 67 -7,6 C -2,5 C 0,0 km/h (0 Bft)
20.02.2015 09:00 -1,7 C 1,0 C 66 % 66 % 1023,4 hPa 0,0 l/m 0,2 km/h (0 Bft) O-NO 67 -7,2 C -2,3 C 0,0 km/h (0 Bft)
20.02.2015 09:05 -1,6 C 1,0 C 65 % 65 % 1023,4 hPa 0,0 l/m 0,2 km/h (0 Bft) N-NO 22 -7,3 C -2,2 C 0,0 km/h (0 Bft)
20.02.2015 09:10 -1,5 C 1,0 C 65 % 65 % 1023,4 hPa 0,0 l/m 0,0 km/h (0 Bft) O-NO 67 -7,2 C -2,1 C 0,0 km/h (0 Bft)
20.02.2015 09:15 -1,5 C 1,0 C 65 % 65 % 1023,2 hPa 0,0 l/m 0,0 km/h (0 Bft) N-NO 22 -7,2 C -1,9 C 0,0 km/h (0 Bft)
20.02.2015 09:20 -1,5 C 1,0 C 64 % 64 % 1023,2 hPa 0,0 l/m 0,0 km/h (0 Bft) O-NO 67 -7,4 C -1,8 C 0,0 km/h (0 Bft)
20.02.2015 09:25 -1,5 C 1,0 C 64 % 64 % 1023,2 hPa 0,0 l/m 0,0 km/h (0 Bft) O-NO 67 -7,4 C -1,6 C 0,0 km/h (0 Bft)
20.02.2015 09:30 -1,5 C 1,0 C 64 % 64 % 1023,2 hPa 0,0 l/m 0,0 km/h (0 Bft) O-NO 67 -7,4 C -1,4 C 0,0 km/h (0 Bft)
20.02.2015 09:35 -1,5 C 1,0 C 64 % 64 % 1023,1 hPa 0,0 l/m 0,0 km/h (0 Bft) O-NO 67 -7,4 C -1,1 C 0,0 km/h (0 Bft)
20.02.2015 09:40 -1,5 C 1,0 C 63 % 63 % 1023,1 hPa 0,0 l/m 0,0 km/h (0 Bft) O-NO 67 -7,6 C -0,8 C 0,0 km/h (0 Bft)
20.02.2015 09:45 -1,5 C 1,0 C 63 % 63 % 1023,1 hPa 0,0 l/m 0,0 km/h (0 Bft) O-NO 67 -7,6 C -0,6 C 0,0 km/h (0 Bft)
20.02.2015 09:50 -1,5 C 1,0 C 62 % 62 % 1023,1 hPa 0,0 l/m 0,0 km/h (0 Bft) O-NO 67 -7,8 C -0,3 C 0,0 km/h (0 Bft)
20.02.2015 09:55 -1,5 C 1,0 C 62 % 62 % 1022,8 hPa 0,0 l/m 0,0 km/h (0 Bft) O-NO 67 -7,8 C 0,1 C 0,0 km/h (0 Bft)
20.02.2015 10:00 -1,5 C 0,9 C 62 % 62 % 1022,8 hPa 0,0 l/m 0,0 km/h (0 Bft) O-NO 67 -7,8 C 0,6 C 0,0 km/h (0 Bft)
20.02.2015 10:05 -1,5 C 0,9 C 61 % 61 % 1022,8 hPa 0,0 l/m 0,0 km/h (0 Bft) O-NO 67 -8,0 C 1,3 C 0,0 km/h (0 Bft)
20.02.2015 10:10 1,6 C 0,9 C 60 % 60 % 1022,8 hPa 0,0 l/m 0,0 km/h (0 Bft) O-NO 67 -5,3 C 3,1 C 0,0 km/h (0 Bft)
20.02.2015 10:15 1,8 C 0,9 C 60 % 60 % 1022,8 hPa 0,0 l/m 0,0 km/h (0 Bft) O-NO 67 -5,1 C 3,5 C 0,0 km/h (0 Bft)
20.02.2015 10:20 2,3 C 0,9 C 59 % 59 % 1022,8 hPa 0,0 l/m 0,0 km/h (0 Bft) O-NO 67 -4,9 C 4,2 C 0,0 km/h (0 Bft)
20.02.2015 10:25 2,4 C 0,9 C 59 % 59 % 1022,8 hPa 0,0 l/m 0,0 km/h (0 Bft) O-NO 67 -4,8 C 6,2 C 0,0 km/h (0 Bft)
20.02.2015 10:30 3,4 C 0,9 C 58 % 58 % 1022,8 hPa 0,0 l/m 0,2 km/h (0 Bft) O-NO 67 -4,1 C 9,3 C 1,6 km/h (1 Bft)
20.02.2015 10:35 3,8 C 1,0 C 57 % 57 % 1022,8 hPa 0,0 l/m 0,2 km/h (0 Bft) O-NO 67 -3,9 C 10,3 C 0,0 km/h (0 Bft)
20.02.2015 10:40 4,4 C 1,0 C 56 % 56 % 1022,8 hPa 0,0 l/m 0,0 km/h (0 Bft) O-NO 67 -3,6 C 10,7 C 0,0 km/h (0 Bft)
20.02.2015 10:45 4,7 C 1,0 C 55 % 55 % 1022,8 hPa 0,0 l/m 0,0 km/h (0 Bft) O-NO 67 -3,6 C 10,9 C 0,0 km/h (0 Bft)
20.02.2015 10:50 5,1 C 1,0 C 55 % 55 % 1022,8 hPa 0,0 l/m 0,0 km/h (0 Bft) O-NO 67 -3,2 C 10,3 C 0,0 km/h (0 Bft)
20.02.2015 10:55 5,3 C 1,0 C 54 % 54 % 1023,2 hPa 0,0 l/m 0,0 km/h (0 Bft) O-NO 67 -3,2 C 10,0 C 0,0 km/h (0 Bft)
20.02.2015 11:00 6,1 C 1,0 C 54 % 54 % 1023,2 hPa 0,0 l/m 0,0 km/h (0 Bft) O-NO 67 -2,5 C 10,0 C 0,0 km/h (0 Bft)
20.02.2015 11:05 6,7 C 1,0 C 54 % 54 % 1023,2 hPa 0,0 l/m 0,0 km/h (0 Bft) O-NO 67 -1,9 C 11,1 C 0,0 km/h (0 Bft)
20.02.2015 11:10 8,0 C 0,9 C 53 % 53 % 1023,2 hPa 0,0 l/m 0,0 km/h (0 Bft) O-NO 67 -1,0 C 14,9 C 0,0 km/h (0 Bft)
20.02.2015 11:15 9,0 C 0,9 C 51 % 51 % 1024,0 hPa 0,0 l/m 0,0 km/h (0 Bft) O-NO 67 -0,6 C 16,9 C 0,0 km/h (0 Bft)
20.02.2015 11:20 10,5 C 1,0 C 50 % 50 % 1024,0 hPa 0,0 l/m 0,0 km/h (0 Bft) O-NO 67 0,5 C 18,9 C 0,0 km/h (0 Bft)
20.02.2015 11:25 11,3 C 0,9 C 50 % 50 % 1024,0 hPa 0,0 l/m 0,0 km/h (0 Bft) O-NO 67 1,3 C 20,0 C 0,0 km/h (0 Bft)
20.02.2015 11:30 12,0 C 0,9 C 49 % 49 % 1024,0 hPa 0,0 l/m 0,0 km/h (0 Bft) O-NO 67 1,6 C 21,4 C 0,0 km/h (0 Bft)
20.02.2015 11:35 12,7 C 1,0 C 48 % 48 % 1024,2 hPa 0,0 l/m 0,0 km/h (0 Bft) O-NO 67 2,0 C 22,0 C 0,0 km/h (0 Bft)
20.02.2015 11:40 12,8 C 1,0 C 45 % 45 % 1024,2 hPa 0,0 l/m 0,0 km/h (0 Bft) O-NO 67 1,2 C 22,7 C 0,0 km/h (0 Bft)
20.02.2015 11:45 12,9 C 1,0 C 46 % 46 % 1024,2 hPa 0,0 l/m 0,0 km/h (0 Bft) O-NO 67 1,6 C 22,9 C 0,0 km/h (0 Bft)
20.02.2015 11:50 13,2 C 1,0 C 45 % 45 % 1024,2 hPa 0,0 l/m 0,0 km/h (0 Bft) N-NO 22 1,5 C 23,3 C 0,0 km/h (0 Bft)
20.02.2015 11:55 13,1 C 1,0 C 44 % 44 % 1024,6 hPa 0,0 l/m 0,3 km/h (0 Bft) N-NW 337 1,1 C 23,2 C 1,8 km/h (1 Bft)
20.02.2015 12:00 12,9 C 1,0 C 43 % 43 % 1024,6 hPa 0,0 l/m 0,3 km/h (0 Bft) N-NW 337 0,6 C 22,0 C 1,6 km/h (1 Bft)
20.02.2015 12:05 12,9 C 1,0 C 43 % 43 % 1024,6 hPa 0,0 l/m 0,3 km/h (0 Bft) N 360 0,6 C 21,7 C 0,0 km/h (0 Bft)
20.02.2015 12:10 12,9 C 1,0 C 41 % 41 % 1024,6 hPa 0,0 l/m 1,4 km/h (1 Bft) W 270 -0,0 C 20,7 C 3,9 km/h (1 Bft)
20.02.2015 12:15 12,8 C 1,0 C 41 % 41 % 1024,8 hPa 0,0 l/m 2,1 km/h (1 Bft) W 270 -0,1 C 19,8 C 0,0 km/h (0 Bft)
20.02.2015 12:20 12,5 C 1,0 C 42 % 42 % 1024,8 hPa 0,0 l/m 1,3 km/h (1 Bft) W-NW 292 -0,1 C 19,8 C 5,3 km/h (1 Bft)
20.02.2015 12:25 12,3 C 1,0 C 40 % 40 % 1024,8 hPa 0,0 l/m 1,8 km/h (1 Bft) W-NW 292 -0,9 C 19,2 C 4,3 km/h (1 Bft)
20.02.2015 12:30 11,7 C 1,0 C 38 % 38 % 1024,8 hPa 0,0 l/m 2,9 km/h (1 Bft) W-NW 292 -2,1 C 18,4 C 4,7 km/h (1 Bft)
20.02.2015 12:35 11,5 C 1,0 C 38 % 38 % 1024,5 hPa 0,0 l/m 2,4 km/h (1 Bft) NW 315 -2,3 C 18,4 C 2,3 km/h (1 Bft)
20.02.2015 12:40 12,1 C 1,0 C 39 % 39 % 1024,5 hPa 0,0 l/m 1,3 km/h (1 Bft) NW 315 -1,4 C 18,7 C 0,0 km/h (0 Bft)
20.02.2015 12:45 12,4 C 1,0 C 40 % 40 % 1024,5 hPa 0,0 l/m 0,6 km/h (0 Bft) NW 315 -0,8 C 18,7 C 1,6 km/h (1 Bft)
20.02.2015 12:50 12,4 C 1,0 C 41 % 41 % 1024,5 hPa 0,0 l/m 0,2 km/h (0 Bft) N-NW 337 -0,5 C 19,2 C 2,4 km/h (1 Bft)
20.02.2015 12:55 13,3 C 1,0 C 40 % 40 % 1024,3 hPa 0,0 l/m 0,3 km/h (0 Bft) N-NW 337 -0,0 C 19,5 C 0,0 km/h (0 Bft)
20.02.2015 13:00 14,0 C 1,0 C 40 % 40 % 1024,3 hPa 0,0 l/m 0,3 km/h (0 Bft) NW 315 0,6 C 20,0 C 0,0 km/h (0 Bft)
20.02.2015 13:05 14,4 C 1,0 C 40 % 40 % 1024,3 hPa 0,0 l/m 0,2 km/h (0 Bft) NW 315 1,0 C 20,5 C 0,0 km/h (0 Bft)
20.02.2015 13:10 14,7 C 1,0 C 40 % 40 % 1024,3 hPa 0,0 l/m 0,2 km/h (0 Bft) NW 315 1,2 C 20,8 C 0,0 km/h (0 Bft)
20.02.2015 13:15 14,1 C 0,9 C 39 % 39 % 1023,8 hPa 0,0 l/m 0,8 km/h (0 Bft) N-NO 22 0,4 C 20,3 C 5,8 km/h (2 Bft)
20.02.2015 13:20 13,7 C 1,0 C 36 % 36 % 1023,8 hPa 0,0 l/m 2,9 km/h (1 Bft) W 270 -1,1 C 17,7 C 4,7 km/h (1 Bft)
20.02.2015 13:25 13,9 C 1,0 C 37 % 37 % 1023,8 hPa 0,0 l/m 4,0 km/h (1 Bft) W 270 -0,5 C 16,2 C 4,7 km/h (1 Bft)
20.02.2015 13:30 14,1 C 1,0 C 37 % 37 % 1023,8 hPa 0,0 l/m 2,7 km/h (1 Bft) W-SW 247 -0,4 C 14,7 C 0,0 km/h (0 Bft)
20.02.2015 13:35 14,3 C 1,0 C 37 % 37 % 1023,1 hPa 0,0 l/m 1,6 km/h (1 Bft) W 270 -0,2 C 14,1 C 0,0 km/h (0 Bft)
20.02.2015 13:40 14,9 C 1,0 C 37 % 37 % 1023,1 hPa 0,0 l/m 1,3 km/h (1 Bft) W-NW 292 0,3 C 13,7 C 3,1 km/h (1 Bft)
20.02.2015 13:45 14,9 C 1,0 C 36 % 36 % 1023,1 hPa 0,0 l/m 1,8 km/h (1 Bft) W-SW 247 -0,0 C 13,8 C 2,7 km/h (1 Bft)
20.02.2015 13:50 15,2 C 1,0 C 36 % 36 % 1023,1 hPa 0,0 l/m 1,1 km/h (1 Bft) W-SW 247 0,2 C 14,8 C 2,1 km/h (1 Bft)
20.02.2015 13:55 15,6 C 1,0 C 38 % 38 % 1022,8 hPa 0,0 l/m 0,6 km/h (0 Bft) NW 315 1,3 C 15,8 C 1,8 km/h (1 Bft)
20.02.2015 14:00 15,4 C 0,9 C 37 % 37 % 1022,8 hPa 0,0 l/m 0,5 km/h (0 Bft) SW 225 0,8 C 17,6 C 0,0 km/h (0 Bft)
20.02.2015 14:05 15,6 C 0,9 C 36 % 36 % 1022,8 hPa 0,0 l/m 0,6 km/h (0 Bft) O-SO 112 0,6 C 18,4 C 0,0 km/h (0 Bft)
20.02.2015 14:10 15,7 C 1,0 C 34 % 34 % 1022,8 hPa 0,0 l/m 1,1 km/h (1 Bft) SO 135 -0,1 C 18,8 C 0,0 km/h (0 Bft)
20.02.2015 14:15 15,6 C 1,0 C 35 % 35 % 1022,2 hPa 0,0 l/m 0,8 km/h (0 Bft) S-SW 202 0,2 C 19,1 C 0,0 km/h (0 Bft)
20.02.2015 14:20 15,8 C 1,0 C 34 % 34 % 1022,2 hPa 0,0 l/m 0,5 km/h (0 Bft) SO 135 -0,0 C 19,5 C 0,0 km/h (0 Bft)
20.02.2015 14:25 15,6 C 1,0 C 34 % 34 % 1022,2 hPa 0,0 l/m 0,6 km/h (0 Bft) O-NO 67 -0,2 C 19,3 C 2,1 km/h (1 Bft)
20.02.2015 14:30 15,3 C 1,0 C 34 % 34 % 1022,2 hPa 0,0 l/m 0,6 km/h (0 Bft) SO 135 -0,5 C 19,5 C 1,9 km/h (1 Bft)
20.02.2015 14:35 15,5 C 1,0 C 34 % 34 % 1021,6 hPa 0,0 l/m 0,3 km/h (0 Bft) S-SO 157 -0,3 C 19,7 C 0,0 km/h (0 Bft)
20.02.2015 14:40 15,1 C 1,0 C 35 % 35 % 1021,6 hPa 0,0 l/m 0,5 km/h (0 Bft) NW 315 -0,2 C 19,7 C 1,8 km/h (1 Bft)
20.02.2015 14:45 15,0 C 1,0 C 34 % 34 % 1021,6 hPa 0,0 l/m 0,6 km/h (0 Bft) S-SO 157 -0,7 C 19,5 C 0,0 km/h (0 Bft)
20.02.2015 14:50 14,8 C 1,0 C 34 % 34 % 1021,6 hPa 0,0 l/m 0,6 km/h (0 Bft) SO 135 -0,9 C 19,3 C 0,0 km/h (0 Bft)
20.02.2015 14:55 14,5 C 1,0 C 34 % 34 % 1020,9 hPa 0,0 l/m 0,5 km/h (0 Bft) SO 135 -1,2 C 19,0 C 0,0 km/h (0 Bft)
20.02.2015 15:00 14,0 C 1,0 C 34 % 34 % 1020,9 hPa 0,0 l/m 0,6 km/h (0 Bft) SW 225 -1,6 C 18,8 C 2,1 km/h (1 Bft)
20.02.2015 15:05 14,1 C 1,0 C 34 % 34 % 1020,9 hPa 0,0 l/m 0,8 km/h (0 Bft) S-SO 157 -1,5 C 18,4 C 2,4 km/h (1 Bft)
20.02.2015 15:10 13,6 C 1,0 C 34 % 34 % 1020,9 hPa 0,0 l/m 1,1 km/h (1 Bft) SO 135 -2,0 C 18,0 C 2,4 km/h (1 Bft)
20.02.2015 15:15 13,6 C 1,0 C 34 % 34 % 1019,9 hPa 0,0 l/m 1,0 km/h (0 Bft) SO 135 -2,0 C 17,7 C 1,6 km/h (1 Bft)
20.02.2015 15:20 13,2 C 1,0 C 34 % 34 % 1019,9 hPa 0,0 l/m 1,1 km/h (1 Bft) O-SO 112 -2,3 C 17,5 C 0,0 km/h (0 Bft)
20.02.2015 15:25 13,3 C 1,0 C 34 % 34 % 1019,9 hPa 0,0 l/m 1,0 km/h (0 Bft) SO 135 -2,2 C 17,2 C 3,1 km/h (1 Bft)
20.02.2015 15:30 13,1 C 1,0 C 33 % 33 % 1019,9 hPa 0,0 l/m 0,3 km/h (0 Bft) S-SO 157 -2,8 C 17,3 C 0,0 km/h (0 Bft)
20.02.2015 15:35 12,8 C 1,0 C 34 % 34 % 1019,4 hPa 0,0 l/m 0,3 km/h (0 Bft) S-SO 157 -2,7 C 17,2 C 0,0 km/h (0 Bft)
20.02.2015 15:40 12,6 C 1,0 C 34 % 34 % 1019,4 hPa 0,0 l/m 0,3 km/h (0 Bft) SO 135 -2,8 C 17,0 C 0,0 km/h (0 Bft)
20.02.2015 15:45 12,3 C 0,9 C 34 % 34 % 1019,4 hPa 0,0 l/m 0,2 km/h (0 Bft) SO 135 -3,1 C 16,8 C 0,0 km/h (0 Bft)
20.02.2015 15:50 10,8 C 0,9 C 34 % 34 % 1019,4 hPa 0,0 l/m 0,2 km/h (0 Bft) O-SO 112 -4,4 C 16,4 C 0,0 km/h (0 Bft)
20.02.2015 15:55 10,0 C 1,0 C 33 % 33 % 1018,8 hPa 0,0 l/m 0,2 km/h (0 Bft) O 90 -5,5 C 15,0 C 0,0 km/h (0 Bft)
20.02.2015 16:00 8,9 C 1,0 C 34 % 34 % 1018,8 hPa 0,0 l/m 0,3 km/h (0 Bft) O-NO 67 -6,1 C 12,6 C 0,0 km/h (0 Bft)
20.02.2015 16:05 8,7 C 1,0 C 34 % 34 % 1018,8 hPa 0,0 l/m 0,6 km/h (0 Bft) SO 135 -6,3 C 11,3 C 0,0 km/h (0 Bft)
20.02.2015 16:10 7,9 C 1,0 C 34 % 34 % 1018,8 hPa 0,0 l/m 0,6 km/h (0 Bft) O-SO 112 -7,0 C 9,6 C 0,0 km/h (0 Bft)
20.02.2015 16:15 7,6 C 1,0 C 34 % 34 % 1018,1 hPa 0,0 l/m 0,5 km/h (0 Bft) SO 135 -7,2 C 8,8 C 0,0 km/h (0 Bft)
20.02.2015 16:20 7,4 C 0,9 C 35 % 35 % 1018,1 hPa 0,0 l/m 0,5 km/h (0 Bft) S-SO 157 -7,0 C 7,7 C 0,0 km/h (0 Bft)
20.02.2015 16:25 7,3 C 0,9 C 35 % 35 % 1018,1 hPa 0,0 l/m 0,5 km/h (0 Bft) SO 135 -7,1 C 7,3 C 2,1 km/h (1 Bft)
20.02.2015 16:30 7,0 C 0,9 C 35 % 35 % 1018,1 hPa 0,0 l/m 0,5 km/h (0 Bft) S-SO 157 -7,4 C 6,8 C 0,0 km/h (0 Bft)
20.02.2015 16:35 6,9 C 0,9 C 35 % 35 % 1017,7 hPa 0,0 l/m 0,3 km/h (0 Bft) SO 135 -7,5 C 6,5 C 0,0 km/h (0 Bft)
20.02.2015 16:40 6,8 C 0,9 C 35 % 35 % 1017,7 hPa 0,0 l/m 0,0 km/h (0 Bft) SO 135 -7,6 C 6,2 C 0,0 km/h (0 Bft)
20.02.2015 16:45 6,8 C 0,9 C 35 % 35 % 1017,7 hPa 0,0 l/m 0,3 km/h (0 Bft) SO 135 -7,6 C 6,1 C 3,1 km/h (1 Bft)
20.02.2015 16:50 6,8 C 0,9 C 35 % 35 % 1017,7 hPa 0,0 l/m 1,3 km/h (1 Bft) SO 135 -7,6 C 6,1 C 2,6 km/h (1 Bft)
20.02.2015 16:55 6,8 C 0,9 C 35 % 35 % 1017,3 hPa 0,0 l/m 1,9 km/h (1 Bft) SO 135 -7,6 C 6,2 C 2,9 km/h (1 Bft)
20.02.2015 17:00 6,7 C 1,0 C 35 % 35 % 1017,3 hPa 0,0 l/m 2,3 km/h (1 Bft) S-SO 157 -7,7 C 6,5 C 2,7 km/h (1 Bft)
20.02.2015 17:05 6,5 C 1,0 C 35 % 35 % 1017,3 hPa 0,0 l/m 1,9 km/h (1 Bft) SO 135 -7,8 C 6,6 C 3,1 km/h (1 Bft)
20.02.2015 17:10 6,2 C 1,0 C 36 % 36 % 1017,3 hPa 0,0 l/m 2,1 km/h (1 Bft) S-SO 157 -7,7 C 6,8 C 2,6 km/h (1 Bft)
20.02.2015 17:15 6,0 C 1,0 C 36 % 36 % 1016,9 hPa 0,0 l/m 2,3 km/h (1 Bft) SO 135 -7,9 C 6,7 C 2,7 km/h (1 Bft)
20.02.2015 17:20 5,7 C 1,0 C 37 % 37 % 1016,9 hPa 0,0 l/m 2,4 km/h (1 Bft) SO 135 -7,8 C 6,1 C 2,7 km/h (1 Bft)
20.02.2015 17:25 5,7 C 1,0 C 38 % 38 % 1016,9 hPa 0,0 l/m 2,4 km/h (1 Bft) SO 135 -7,5 C 5,7 C 2,4 km/h (1 Bft)
20.02.2015 17:30 5,3 C 1,0 C 39 % 39 % 1016,9 hPa 0,0 l/m 2,3 km/h (1 Bft) SO 135 -7,5 C 5,2 C 2,6 km/h (1 Bft)
20.02.2015 17:35 5,3 C 1,0 C 40 % 40 % 1016,4 hPa 0,0 l/m 2,4 km/h (1 Bft) SO 135 -7,2 C 5,0 C 2,7 km/h (1 Bft)
20.02.2015 17:40 5,1 C 1,0 C 40 % 40 % 1016,4 hPa 0,0 l/m 2,4 km/h (1 Bft) SO 135 -7,4 C 4,7 C 2,7 km/h (1 Bft)
20.02.2015 17:45 4,8 C 1,0 C 41 % 41 % 1016,4 hPa 0,0 l/m 2,4 km/h (1 Bft) SO 135 -7,3 C 4,4 C 2,1 km/h (1 Bft)
20.02.2015 17:50 4,5 C 1,0 C 42 % 42 % 1016,4 hPa 0,0 l/m 2,4 km/h (1 Bft) SO 135 -7,3 C 4,0 C 3,2 km/h (1 Bft)
20.02.2015 17:55 4,3 C 1,0 C 43 % 43 % 1016,0 hPa 0,0 l/m 2,4 km/h (1 Bft) SO 135 -7,2 C 3,8 C 2,9 km/h (1 Bft)
20.02.2015 18:00 3,2 C 0,9 C 44 % 44 % 1016,0 hPa 0,0 l/m 2,4 km/h (1 Bft) S-SO 157 -7,9 C 3,3 C 2,6 km/h (1 Bft)
20.02.2015 18:05 2,0 C 0,9 C 47 % 47 % 1016,0 hPa 0,0 l/m 2,3 km/h (1 Bft) SO 135 -8,1 C 2,6 C 3,4 km/h (1 Bft)
20.02.2015 18:10 1,6 C 0,9 C 49 % 49 % 1016,0 hPa 0,0 l/m 1,1 km/h (1 Bft) O-SO 112 -7,9 C 1,3 C 0,0 km/h (0 Bft)
20.02.2015 18:15 0,8 C 0,9 C 50 % 50 % 1015,9 hPa 0,0 l/m 0,5 km/h (0 Bft) O-SO 112 -8,4 C 0,6 C 0,0 km/h (0 Bft)
20.02.2015 18:20 0,0 C 0,9 C 51 % 51 % 1015,9 hPa 0,0 l/m 0,0 km/h (0 Bft) O-SO 112 -8,9 C -0,6 C 0,0 km/h (0 Bft)
20.02.2015 18:25 -0,3 C 0,9 C 53 % 53 % 1015,9 hPa 0,0 l/m 0,0 km/h (0 Bft) O-SO 112 -8,7 C -1,2 C 0,0 km/h (0 Bft)
20.02.2015 18:30 -0,9 C 1,0 C 53 % 53 % 1015,9 hPa 0,0 l/m 0,0 km/h (0 Bft) O-SO 112 -9,2 C -2,0 C 0,0 km/h (0 Bft)
20.02.2015 18:35 -0,7 C 1,0 C 53 % 53 % 1015,8 hPa 0,0 l/m 0,0 km/h (0 Bft) O-SO 112 -9,1 C -2,4 C 0,0 km/h (0 Bft)
20.02.2015 18:40 -1,1 C 1,0 C 55 % 55 % 1015,8 hPa 0,0 l/m 0,0 km/h (0 Bft) O-SO 112 -9,0 C -2,7 C 0,0 km/h (0 Bft)
20.02.2015 18:45 -1,0 C 1,0 C 55 % 55 % 1015,8 hPa 0,0 l/m 0,0 km/h (0 Bft) SO 135 -8,9 C -2,8 C 0,0 km/h (0 Bft)
20.02.2015 18:50 -0,5 C 1,0 C 56 % 56 % 1015,8 hPa 0,0 l/m 0,0 km/h (0 Bft) O-SO 112 -8,2 C -2,7 C 0,0 km/h (0 Bft)
20.02.2015 18:55 -1,2 C 1,0 C 56 % 56 % 1015,4 hPa 0,0 l/m 0,0 km/h (0 Bft) O-SO 112 -8,8 C -2,7 C 0,0 km/h (0 Bft)
20.02.2015 19:00 -1,7 C 1,0 C 56 % 56 % 1015,4 hPa 0,0 l/m 0,0 km/h (0 Bft) O-SO 112 -9,3 C -3,0 C 0,0 km/h (0 Bft)
20.02.2015 19:05 -2,2 C 1,0 C 56 % 56 % 1015,4 hPa 0,0 l/m 0,0 km/h (0 Bft) O-SO 112 -9,8 C -3,3 C 0,0 km/h (0 Bft)
20.02.2015 19:10 -2,4 C 0,9 C 57 % 57 % 1015,4 hPa 0,0 l/m 0,0 km/h (0 Bft) O-SO 112 -9,7 C -3,7 C 0,0 km/h (0 Bft)
20.02.2015 19:15 -2,5 C 0,9 C 57 % 57 % 1015,2 hPa 0,0 l/m 0,0 km/h (0 Bft) O-SO 112 -9,8 C -4,0 C 0,0 km/h (0 Bft)
20.02.2015 19:20 -3,0 C 0,9 C 58 % 58 % 1015,2 hPa 0,0 l/m 0,0 km/h (0 Bft) O-SO 112 -10,1 C -4,2 C 0,0 km/h (0 Bft)
20.02.2015 19:25 -2,9 C 0,9 C 58 % 58 % 1015,2 hPa 0,0 l/m 0,0 km/h (0 Bft) O-SO 112 -10,0 C -4,3 C 0,0 km/h (0 Bft)
20.02.2015 19:30 -3,1 C 0,9 C 59 % 59 % 1015,2 hPa 0,0 l/m 0,0 km/h (0 Bft) O-SO 112 -10,0 C -4,4 C 0,0 km/h (0 Bft)
20.02.2015 19:35 -3,1 C 0,9 C 59 % 59 % 1014,9 hPa 0,0 l/m 0,0 km/h (0 Bft) O-SO 112 -10,0 C -4,4 C 0,0 km/h (0 Bft)
20.02.2015 19:40 -3,2 C 0,9 C 59 % 59 % 1014,9 hPa 0,0 l/m 0,0 km/h (0 Bft) O-SO 112 -10,0 C -4,5 C 0,0 km/h (0 Bft)
20.02.2015 19:45 -3,3 C 0,9 C 59 % 59 % 1014,9 hPa 0,0 l/m 0,0 km/h (0 Bft) O-SO 112 -10,1 C -4,6 C 0,0 km/h (0 Bft)
20.02.2015 19:50 -3,4 C 0,9 C 60 % 60 % 1014,9 hPa 0,0 l/m 0,0 km/h (0 Bft) O-SO 112 -10,0 C -4,6 C 0,0 km/h (0 Bft)
20.02.2015 19:55 -3,6 C 0,9 C 60 % 60 % 1014,7 hPa 0,0 l/m 0,0 km/h (0 Bft) O-SO 112 -10,2 C -4,7 C 0,0 km/h (0 Bft)
20.02.2015 20:00 -3,8 C 0,9 C 61 % 61 % 1014,7 hPa 0,0 l/m 0,0 km/h (0 Bft) O-SO 112 -10,2 C -4,7 C 0,0 km/h (0 Bft)
20.02.2015 20:05 -3,8 C 0,9 C 62 % 62 % 1014,7 hPa 0,0 l/m 0,0 km/h (0 Bft) O-SO 112 -10,0 C -4,7 C 0,0 km/h (0 Bft)
20.02.2015 20:10 -3,6 C 0,9 C 62 % 62 % 1014,7 hPa 0,0 l/m 0,0 km/h (0 Bft) O-SO 112 -9,8 C -5,0 C 0,0 km/h (0 Bft)
20.02.2015 20:15 -3,3 C 0,9 C 63 % 63 % 1014,0 hPa 0,0 l/m 0,0 km/h (0 Bft) O-SO 112 -9,3 C -4,9 C 0,0 km/h (0 Bft)
20.02.2015 20:20 -3,6 C 0,9 C 63 % 63 % 1014,0 hPa 0,0 l/m 0,0 km/h (0 Bft) SO 135 -9,6 C -4,9 C 0,0 km/h (0 Bft)
20.02.2015 20:25 -3,4 C 0,9 C 63 % 63 % 1014,0 hPa 0,0 l/m 0,0 km/h (0 Bft) O-SO 112 -9,4 C -4,9 C 0,0 km/h (0 Bft)
20.02.2015 20:30 -4,0 C 0,9 C 64 % 64 % 1014,0 hPa 0,0 l/m 0,0 km/h (0 Bft) O-SO 112 -9,8 C -5,0 C 0,0 km/h (0 Bft)
20.02.2015 20:35 -4,2 C 0,9 C 64 % 64 % 1013,7 hPa 0,0 l/m 0,0 km/h (0 Bft) O-SO 112 -10,0 C -5,2 C 0,0 km/h (0 Bft)
20.02.2015 20:40 -4,3 C 0,9 C 64 % 64 % 1013,7 hPa 0,0 l/m 0,0 km/h (0 Bft) O-SO 112 -10,1 C -5,4 C 0,0 km/h (0 Bft)
20.02.2015 20:45 -4,5 C 0,9 C 64 % 64 % 1013,7 hPa 0,0 l/m 0,0 km/h (0 Bft) O-SO 112 -10,3 C -5,6 C 0,0 km/h (0 Bft)
20.02.2015 20:50 -4,4 C 0,9 C 65 % 65 % 1013,7 hPa 0,0 l/m 0,0 km/h (0 Bft) O-SO 112 -10,0 C -5,9 C 0,0 km/h (0 Bft)
20.02.2015 20:55 -4,3 C 0,9 C 66 % 66 % 1013,3 hPa 0,0 l/m 0,0 km/h (0 Bft) O-SO 112 -9,7 C -5,7 C 0,0 km/h (0 Bft)
20.02.2015 21:00 -4,5 C 0,9 C 66 % 66 % 1013,3 hPa 0,0 l/m 0,0 km/h (0 Bft) O-SO 112 -9,9 C -5,6 C 0,0 km/h (0 Bft)
20.02.2015 21:05 -4,7 C 0,9 C 66 % 66 % 1013,3 hPa 0,0 l/m 0,0 km/h (0 Bft) O-SO 112 -10,1 C -5,8 C 0,0 km/h (0 Bft)
20.02.2015 21:10 -4,4 C 0,9 C 66 % 66 % 1013,3 hPa 0,0 l/m 0,0 km/h (0 Bft) O-SO 112 -9,8 C -5,8 C 0,0 km/h (0 Bft)
20.02.2015 21:15 -4,7 C 0,9 C 66 % 66 % 1013,2 hPa 0,0 l/m 0,0 km/h (0 Bft) O-SO 112 -10,1 C -5,7 C 0,0 km/h (0 Bft)
20.02.2015 21:20 -4,9 C 0,9 C 67 % 67 % 1013,2 hPa 0,0 l/m 0,0 km/h (0 Bft) O-SO 112 -10,1 C -6,0 C 0,0 km/h (0 Bft)
20.02.2015 21:25 -4,7 C 0,9 C 67 % 67 % 1013,2 hPa 0,0 l/m 0,0 km/h (0 Bft) O-SO 112 -9,9 C -6,0 C 0,0 km/h (0 Bft)
20.02.2015 21:30 -4,7 C 0,9 C 67 % 67 % 1013,2 hPa 0,0 l/m 0,0 km/h (0 Bft) S-SO 157 -9,9 C -6,0 C 0,0 km/h (0 Bft)
20.02.2015 21:35 -5,0 C 0,9 C 67 % 67 % 1012,7 hPa 0,0 l/m 0,0 km/h (0 Bft) S-SO 157 -10,2 C -6,1 C 0,0 km/h (0 Bft)
20.02.2015 21:40 -5,1 C 0,9 C 67 % 67 % 1012,7 hPa 0,0 l/m 0,0 km/h (0 Bft) SO 135 -10,2 C -6,1 C 0,0 km/h (0 Bft)
20.02.2015 21:45 -5,0 C 0,9 C 68 % 68 % 1012,7 hPa 0,0 l/m 0,0 km/h (0 Bft) SO 135 -10,0 C -6,2 C 0,0 km/h (0 Bft)
20.02.2015 21:50 -4,8 C 0,9 C 68 % 68 % 1012,7 hPa 0,0 l/m 0,0 km/h (0 Bft) S-SO 157 -9,8 C -6,2 C 0,0 km/h (0 Bft)
20.02.2015 21:55 -5,0 C 0,9 C 68 % 68 % 1012,4 hPa 0,0 l/m 0,0 km/h (0 Bft) O-SO 112 -10,0 C -6,3 C 0,0 km/h (0 Bft)
20.02.2015 22:00 -5,3 C 0,9 C 68 % 68 % 1012,4 hPa 0,0 l/m 0,0 km/h (0 Bft) O-SO 112 -10,3 C -6,4 C 0,0 km/h (0 Bft)
20.02.2015 22:05 -5,3 C 0,9 C 68 % 68 % 1012,4 hPa 0,0 l/m 0,0 km/h (0 Bft) O-SO 112 -10,3 C -6,5 C 0,0 km/h (0 Bft)
20.02.2015 22:10 -4,2 C 0,9 C 70 % 70 % 1012,4 hPa 0,0 l/m 0,0 km/h (0 Bft) S-SO 157 -8,8 C -6,4 C 0,0 km/h (0 Bft)
20.02.2015 22:15 -3,0 C 0,9 C 70 % 70 % 1012,2 hPa 0,0 l/m 0,3 km/h (0 Bft) S-SO 157 -7,7 C -5,7 C 2,7 km/h (1 Bft)
20.02.2015 22:20 -2,7 C 0,9 C 69 % 69 % 1012,2 hPa 0,0 l/m 1,6 km/h (1 Bft) S-SO 157 -7,6 C -4,5 C 1,6 km/h (1 Bft)
20.02.2015 22:25 -2,3 C 0,9 C 69 % 69 % 1012,2 hPa 0,0 l/m 2,7 km/h (1 Bft) SO 135 -7,2 C -4,5 C 4,2 km/h (1 Bft)
20.02.2015 22:30 -2,9 C 0,9 C 68 % 68 % 1012,2 hPa 0,0 l/m 2,7 km/h (1 Bft) O-SO 112 -8,0 C -4,3 C 2,1 km/h (1 Bft)
20.02.2015 22:35 -3,0 C 0,9 C 68 % 68 % 1011,7 hPa 0,0 l/m 2,6 km/h (1 Bft) S-SO 157 -8,1 C -4,2 C 2,6 km/h (1 Bft)
20.02.2015 22:40 -2,6 C 0,9 C 68 % 68 % 1011,7 hPa 0,0 l/m 2,6 km/h (1 Bft) S 180 -7,7 C -4,2 C 4,3 km/h (1 Bft)
20.02.2015 22:45 -2,9 C 0,9 C 67 % 67 % 1011,7 hPa 0,0 l/m 2,6 km/h (1 Bft) O-SO 112 -8,1 C -4,1 C 0,0 km/h (0 Bft)
20.02.2015 22:50 -2,9 C 0,9 C 68 % 68 % 1011,7 hPa 0,0 l/m 2,1 km/h (1 Bft) S-SO 157 -8,0 C -3,8 C 2,1 km/h (1 Bft)
20.02.2015 22:55 -2,9 C 0,9 C 68 % 68 % 1011,3 hPa 0,0 l/m 2,1 km/h (1 Bft) SO 135 -8,0 C -3,9 C 3,4 km/h (1 Bft)
20.02.2015 23:00 -2,7 C 0,9 C 67 % 67 % 1011,3 hPa 0,0 l/m 2,3 km/h (1 Bft) SO 135 -8,0 C -3,9 C 1,8 km/h (1 Bft)
20.02.2015 23:05 -2,8 C 0,9 C 67 % 67 % 1011,3 hPa 0,0 l/m 2,4 km/h (1 Bft) S-SO 157 -8,1 C -4,1 C 3,4 km/h (1 Bft)
20.02.2015 23:10 -2,3 C 0,9 C 66 % 66 % 1011,3 hPa 0,0 l/m 3,2 km/h (1 Bft) S-SO 157 -7,8 C -4,7 C 4,7 km/h (1 Bft)
20.02.2015 23:15 -1,8 C 0,9 C 65 % 65 % 1010,8 hPa 0,0 l/m 3,7 km/h (1 Bft) S-SW 202 -7,5 C -4,4 C 3,7 km/h (1 Bft)
20.02.2015 23:20 -1,7 C 0,9 C 64 % 64 % 1010,8 hPa 0,0 l/m 4,0 km/h (1 Bft) S 180 -7,6 C -4,3 C 9,7 km/h (2 Bft)
20.02.2015 23:25 -2,1 C 0,9 C 63 % 63 % 1010,8 hPa 0,0 l/m 3,2 km/h (1 Bft) S-SO 157 -8,2 C -3,7 C 2,9 km/h (1 Bft)
20.02.2015 23:30 -3,7 C 0,9 C 62 % 62 % 1010,8 hPa 0,0 l/m 1,8 km/h (1 Bft) S 180 -9,9 C -3,7 C 2,1 km/h (1 Bft)
20.02.2015 23:35 -4,1 C 0,9 C 63 % 63 % 1010,6 hPa 0,0 l/m 0,8 km/h (0 Bft) S 180 -10,1 C -4,3 C 2,9 km/h (1 Bft)
20.02.2015 23:40 -2,9 C 0,9 C 65 % 65 % 1010,6 hPa 0,0 l/m 2,3 km/h (1 Bft) S 180 -8,5 C -4,7 C 4,3 km/h (1 Bft)
20.02.2015 23:45 -2,6 C 0,9 C 64 % 64 % 1010,6 hPa 0,0 l/m 3,4 km/h (1 Bft) S 180 -8,4 C -5,2 C 5,0 km/h (1 Bft)
20.02.2015 23:50 -2,9 C 0,9 C 63 % 63 % 1010,6 hPa 0,0 l/m 3,7 km/h (1 Bft) SW 225 -8,9 C -5,1 C 2,3 km/h (1 Bft)
20.02.2015 23:55 -3,5 C 0,9 C 62 % 62 % 1010,4 hPa 0,0 l/m 2,7 km/h (1 Bft) SW 225 -9,7 C -4,9 C 3,7 km/h (1 Bft)
_ Min-Zeit 06:20 23:55 15:55 15:55 23:55 - 22:10 - - 05:55 06:20 22:45
Minimum _ -6,6 C 0,9 C 33 % 33 % 1010,4 hPa - 0,0 km/h (0 Bft) - - -11,1 C -7,5 C 0,0 km/h (0 Bft)
_ Max-Zeit 14:20 19:05 02:00 02:00 00:10 23:55 23:20 - - 11:35 11:50 23:20
Maximum _ 15,8 C 1,0 C 76 % 76 % 1027,1 hPa 0,0 l/m 4,0 km/h
S (1 Bft)
- - 2,0 C 23,3 C 9,7 km/h
S (2 Bft)
Durchschnitt _ 1,0 C 0,9 C 59 % 59 % 1020,9 hPa #0,0 l/m 0,5 km/h (0 Bft) SO - -6,8 C 1,5 C 0,8 km/h (0 Bft)